• In Portugal
  • List of Countries
  • For 7 days
  • Water Temperature
  • Satellite Maps
  • Weather Map
  • Weather Widgets
  • user-avatar
    Login

    Hourly Weather Lezhe

    Today, 27 May, Sunday

    Time Temperature Precipitation Wind Pressure Humidity
    00:00 +18°C° 0 mm 3 mps 739 mmHg 79%
    01:00 +18°C° 0 mm 3 mps 739 mmHg 79%
    02:00 +18°C° 0 mm 3 mps 739 mmHg 79%
    03:00 +18°C° 0 mm 3 mps 739 mmHg 79%
    04:00 +17°C° 0 mm 3 mps 739 mmHg 79%
    05:00 +19°C° 0 mm 3 mps 739 mmHg 76%
    06:00 +21°C° 0 mm 3 mps 739 mmHg 72%
    07:00 +22°C° 0 mm 3 mps 739 mmHg 69%
    08:00 +25°C° 0 mm 2 mps 739 mmHg 63%
    09:00 +27°C° 0 mm 2 mps 739 mmHg 57%
    10:00 +28°C° 0 mm 2 mps 739 mmHg 50%
    11:00 +29°C° 0 mm 2 mps 739 mmHg 49%
    12:00 +29°C° 0 mm 3 mps 739 mmHg 49%
    13:00 +30°C° 0 mm 3 mps 739 mmHg 48%
    14:00 +29°C° 0.1 mm 3 mps 739 mmHg 50%
    15:00 +29°C° 0.1 mm 3 mps 739 mmHg 52%
    16:00 +29°C° 0.1 mm 3 mps 738 mmHg 54%
    17:00 +27°C° 0.1 mm 3 mps 738 mmHg 61%
    18:00 +25°C° 0.1 mm 2 mps 738 mmHg 68%
    19:00 +23°C° 0.1 mm 2 mps 738 mmHg 75%
    20:00 +21°C° 0 mm 2 mps 739 mmHg 75%
    21:00 +21°C° 0 mm 2 mps 739 mmHg 76%
    22:00 +20°C° 0 mm 2 mps 739 mmHg 76%
    23:00 +20°C° 0 mm 2 mps 739 mmHg 76%

    Tomorrow, 28 May, Monday

    Time Temperature Precipitation Wind Pressure Humidity
    00:00 +19°C° 0 mm 2 mps 739 mmHg 76%
    01:00 +19°C° 0 mm 2 mps 739 mmHg 77%
    02:00 +19°C° 0 mm 2 mps 739 mmHg 77%
    03:00 +19°C° 0 mm 2 mps 739 mmHg 78%
    04:00 +18°C° 0 mm 2 mps 739 mmHg 78%
    05:00 +20°C° 0 mm 2 mps 739 mmHg 75%
    06:00 +23°C° 0 mm 1 mps 739 mmHg 72%
    07:00 +24°C° 0 mm 1 mps 739 mmHg 69%
    08:00 +26°C° 0 mm 1 mps 739 mmHg 63%
    09:00 +27°C° 0 mm 1 mps 739 mmHg 58%
    10:00 +29°C° 0 mm 1 mps 739 mmHg 52%
    11:00 +29°C° 0.1 mm 2 mps 739 mmHg 51%
    12:00 +29°C° 0.1 mm 2 mps 739 mmHg 50%
    13:00 +30°C° 0.1 mm 3 mps 739 mmHg 49%
    14:00 +29°C° 0.1 mm 3 mps 738 mmHg 51%
    15:00 +29°C° 0.1 mm 3 mps 738 mmHg 54%
    16:00 +29°C° 0.1 mm 3 mps 738 mmHg 56%
    17:00 +27°C° 0.1 mm 2 mps 738 mmHg 63%
    18:00 +25°C° 0.1 mm 2 mps 738 mmHg 70%
    19:00 +23°C° 0.1 mm 2 mps 738 mmHg 77%
    20:00 +23°C° 0 mm 2 mps 738 mmHg 77%
    21:00 +21°C° 0 mm 2 mps 739 mmHg 77%
    22:00 +20°C° 0 mm 2 mps 739 mmHg 77%
    23:00 +20°C° 0 mm 2 mps 739 mmHg 77%

    Day after tomorrow, 29 May, Tuesday

    Time Temperature Precipitation Wind Pressure Humidity
    00:00 +20°C° 0 mm 2 mps 738 mmHg 77%
    01:00 +19°C° 0 mm 2 mps 738 mmHg 77%
    02:00 +19°C° 0 mm 2 mps 738 mmHg 78%
    03:00 +19°C° 0 mm 2 mps 738 mmHg 79%
    04:00 +18°C° 0 mm 2 mps 738 mmHg 80%
    05:00 +20°C° 0 mm 2 mps 738 mmHg 77%
    06:00 +23°C° 0 mm 2 mps 738 mmHg 73%
    07:00 +24°C° 0 mm 2 mps 738 mmHg 70%
    08:00 +26°C° 0 mm 2 mps 738 mmHg 65%
    09:00 +27°C° 0 mm 1 mps 738 mmHg 59%
    10:00 +29°C° 0 mm 1 mps 738 mmHg 54%
    11:00 +29°C° 0.1 mm 2 mps 738 mmHg 53%
    12:00 +29°C° 0.1 mm 3 mps 738 mmHg 52%
    13:00 +30°C° 0.1 mm 3 mps 737 mmHg 51%
    14:00 +29°C° 0.2 mm 3 mps 737 mmHg 53%
    15:00 +29°C° 0.2 mm 3 mps 737 mmHg 56%
    16:00 +28°C° 0.2 mm 3 mps 736 mmHg 58%
    17:00 +27°C° 0.1 mm 2 mps 736 mmHg 63%
    18:00 +25°C° 0.1 mm 2 mps 736 mmHg 69%
    19:00 +24°C° 0.1 mm 1 mps 736 mmHg 75%
    20:00 +23°C° 0 mm 1 mps 736 mmHg 75%
    21:00 +22°C° 0 mm 1 mps 737 mmHg 75%
    22:00 +22°C° 0 mm 1 mps 737 mmHg 74%
    23:00 +21°C° 0 mm 1 mps 737 mmHg 74%

    30 May, Wednesday

    Time Temperature Precipitation Wind Pressure Humidity
    00:00 +21°C° 0 mm 1 mps 736 mmHg 74%
    01:00 +21°C° 0 mm 1 mps 736 mmHg 73%
    02:00 +20°C° 0 mm 1 mps 736 mmHg 73%
    03:00 +20°C° 0 mm 1 mps 736 mmHg 73%
    04:00 +20°C° 0 mm 1 mps 736 mmHg 72%
    05:00 +21°C° 0 mm 1 mps 736 mmHg 70%
    06:00 +23°C° 0 mm 1 mps 736 mmHg 67%
    07:00 +24°C° 0 mm 1 mps 736 mmHg 64%
    08:00 +26°C° 0 mm 1 mps 736 mmHg 60%
    09:00 +27°C° 0 mm 1 mps 736 mmHg 56%
    10:00 +28°C° 0 mm 1 mps 736 mmHg 52%
    11:00 +29°C° 0.2 mm 2 mps 736 mmHg 53%
    12:00 +29°C° 0.2 mm 2 mps 736 mmHg 54%
    13:00 +29°C° 0.2 mm 3 mps 736 mmHg 55%
    14:00 +28°C° 0.2 mm 2 mps 735 mmHg 58%
    15:00 +28°C° 0.2 mm 2 mps 735 mmHg 60%
    16:00 +28°C° 0.2 mm 2 mps 735 mmHg 63%
    17:00 +26°C° 0.1 mm 1 mps 735 mmHg 69%
    18:00 +25°C° 0.1 mm 1 mps 735 mmHg 76%
    19:00 +23°C° 0.1 mm 1 mps 735 mmHg 82%
    20:00 +22°C° 0.2 mm 1 mps 735 mmHg 84%
    21:00 +22°C° 0.2 mm 1 mps 735 mmHg 86%
    22:00 +21°C° 0.2 mm 1 mps 736 mmHg 88%
    23:00 +21°C° 0.1 mm 1 mps 735 mmHg 88%

    31 May, Thursday

    Time Temperature Precipitation Wind Pressure Humidity
    00:00 +21°C° 0.1 mm 1 mps 735 mmHg 89%
    01:00 +20°C° 0.1 mm 1 mps 735 mmHg 89%
    02:00 +20°C° 0 mm 1 mps 735 mmHg 89%
    03:00 +20°C° 0 mm 1 mps 735 mmHg 89%
    04:00 +19°C° 0 mm 2 mps 735 mmHg 89%
    05:00 +21°C° 0 mm 1 mps 735 mmHg 83%
    06:00 +23°C° 0 mm 1 mps 735 mmHg 76%
    07:00 +24°C° 0 mm 1 mps 735 mmHg 69%
    08:00 +25°C° 0.2 mm 1 mps 735 mmHg 66%
    09:00 +26°C° 0.2 mm 2 mps 735 mmHg 63%
    10:00 +27°C° 0.2 mm 2 mps 735 mmHg 59%
    11:00 +28°C° 0.2 mm 2 mps 735 mmHg 58%
    12:00 +28°C° 0.2 mm 3 mps 735 mmHg 58%
    13:00 +29°C° 0.2 mm 3 mps 735 mmHg 57%
    14:00 +28°C° 0.2 mm 3 mps 735 mmHg 58%
    15:00 +28°C° 0.2 mm 3 mps 735 mmHg 60%
    16:00 +28°C° 0.2 mm 2 mps 734 mmHg 62%
    17:00 +26°C° 0.1 mm 2 mps 735 mmHg 69%
    18:00 +24°C° 0.1 mm 2 mps 735 mmHg 75%
    19:00 +22°C° 0.1 mm 1 mps 735 mmHg 82%
    20:00 +22°C° 0.1 mm 1 mps 735 mmHg 84%
    21:00 +21°C° 0.1 mm 1 mps 735 mmHg 85%
    22:00 +20°C° 0.1 mm 1 mps 735 mmHg 87%
    23:00 +20°C° 0.1 mm 1 mps 735 mmHg 86%

    1 June, Friday

    Time Temperature Precipitation Wind Pressure Humidity
    00:00 +20°C° 0.1 mm 1 mps 735 mmHg 85%
    01:00 +20°C° 0.1 mm 1 mps 735 mmHg 84%
    02:00 +19°C° 0 mm 1 mps 735 mmHg 84%
    03:00 +19°C° 0 mm 1 mps 735 mmHg 83%
    04:00 +19°C° 0 mm 1 mps 735 mmHg 83%
    05:00 +20°C° 0 mm 1 mps 735 mmHg 80%
    06:00 +22°C° 0 mm 1 mps 735 mmHg 76%
    07:00 +24°C° 0 mm 1 mps 735 mmHg 72%
    08:00 +25°C° 0 mm 1 mps 735 mmHg 69%
    09:00 +26°C° 0 mm 1 mps 735 mmHg 67%
    10:00 +27°C° 0 mm 2 mps 735 mmHg 64%
    11:00 +28°C° 0.2 mm 2 mps 735 mmHg 63%
    12:00 +28°C° 0.2 mm 2 mps 735 mmHg 62%
    13:00 +29°C° 0.2 mm 3 mps 735 mmHg 61%
    14:00 +28°C° 0.4 mm 3 mps 735 mmHg 63%
    15:00 +28°C° 0.4 mm 3 mps 735 mmHg 66%
    16:00 +27°C° 0.4 mm 3 mps 735 mmHg 69%
    17:00 +26°C° 0.5 mm 2 mps 735 mmHg 75%
    18:00 +24°C° 0.5 mm 2 mps 735 mmHg 82%
    19:00 +23°C° 0.5 mm 1 mps 735 mmHg 89%
    20:00 +22°C° 0.2 mm 1 mps 736 mmHg 89%
    21:00 +21°C° 0.2 mm 1 mps 736 mmHg 90%
    22:00 +21°C° 0.2 mm 1 mps 736 mmHg 91%
    23:00 +20°C° 0 mm 1 mps 736 mmHg 90%
    Show more